This is the latest recevied weather packets stored in our database for station/object SV9TNF-52. If no packets are shown the sender has not sent any weather packets the latest 10 day(s).
| Time | Temp. | Humidity | Pressure | Rain* | Wind** | Luminosity | Snow |
|---|---|---|---|---|---|---|---|
| 1788323615 | 21.67° C | 64% | 1020 hPa | 0 mm | 6.71 m/s, 200° | - | - |
| 1788323315 | 21.67° C | 65% | 1020 hPa | 0 mm | 5.81 m/s, 220° | - | - |
| 1788323016 | 21.11° C | 66% | 1019.6 hPa | 0 mm | 6.26 m/s, 186° | - | - |
| 1788322715 | 21.11° C | 66% | 1019.6 hPa | 0 mm | 6.26 m/s, 216° | - | - |
| 1788322415 | 21.11° C | 66% | 1019.6 hPa | 0 mm | 5.81 m/s, 193° | - | - |
| 1788322115 | 21.11° C | 67% | 1019.6 hPa | 0 mm | 5.81 m/s, 163° | - | - |
| 1788321815 | 21.11° C | 67% | 1019.6 hPa | 0 mm | 6.26 m/s, 177° | - | - |
| 1788321515 | 21.11° C | 68% | 1019.6 hPa | 0 mm | 6.71 m/s, 231° | - | - |
| 1788321215 | 21.11° C | 68% | 1019.6 hPa | 0 mm | 6.26 m/s, 216° | - | - |
| 1788320915 | 21.67° C | 68% | 1019.6 hPa | 0 mm | 5.36 m/s, 207° | - | - |
| 1788320614 | 21.67° C | 69% | 1019.6 hPa | 0 mm | 7.6 m/s, 248° | - | - |
| 1788320314 | 21.67° C | 69% | 1019.6 hPa | 0 mm | 9.39 m/s, 220° | - | - |
| 1788320014 | 21.67° C | 70% | 1019.6 hPa | 0 mm | 8.94 m/s, 224° | - | - |
| 1788319714 | 21.67° C | 70% | 1019.6 hPa | 0 mm | 8.05 m/s, 179° | - | - |
| 1788319414 | 21.67° C | 70% | 1019.3 hPa | 0 mm | 8.05 m/s, 207° | - | - |
| 1788319114 | 21.67° C | 71% | 1019.3 hPa | 0 mm | 5.81 m/s, 171° | - | - |
| 1788318814 | 21.67° C | 71% | 1019.3 hPa | 0 mm | 6.71 m/s, 209° | - | - |
| 1788318514 | 21.67° C | 72% | 1019.3 hPa | 0 mm | 7.15 m/s, 180° | - | - |
| 1788318214 | 21.67° C | 72% | 1019.3 hPa | 0 mm | 6.71 m/s, 215° | - | - |
| 1788317913 | 21.67° C | 72% | 1019.3 hPa | 0 mm | 6.71 m/s, 188° | - | - |
| 1788317614 | 21.67° C | 73% | 1019.3 hPa | 0 mm | 9.39 m/s, 180° | - | - |
| 1788317313 | 21.67° C | 73% | 1019.3 hPa | 0 mm | 8.05 m/s, 198° | - | - |
| 1788317013 | 21.67° C | 73% | 1019.6 hPa | 0 mm | 6.26 m/s, 233° | - | - |
| 1788316713 | 21.67° C | 74% | 1019.6 hPa | 0 mm | 8.05 m/s, 196° | - | - |
| 1788316413 | 21.67° C | 74% | 1019.3 hPa | 0 mm | 8.05 m/s, 272° | - | - |
* Rain latest hour (hover to see other rain measurements)
** Current wind speed in m/s (hover to see current wind gust speed)